< Cyclone 201404 2014 Season Cyclone 201408 >
Cyclone 201407 (Dylan)
General InformationTrack Information on Google MapsDetailed Wind InformationList of All Images || ResourceGoogle EarthGE AnimationAtom FeedGeoJSON
Detalied Best Track (Time Zone = UTC)
Year Month Day Hour Lat. Long. Pressure (hPa) Wind (kt) Class Image Chart
2014 1 24 06 -12.9 160.0 1003 25 2 Image --
2014 1 24 12 -12.8 159.4 1002 25 2 Image --
2014 1 24 18 -12.9 159.0 1002 25 2 Image --
2014 1 25 00 -12.9 159.0 1002 25 2 Image --
2014 1 25 06 -12.9 159.0 1000 25 2 Image --
2014 1 25 12 -12.4 158.5 1002 25 2 Image --
2014 1 25 18 -11.3 157.9 1001 25 2 Image --
2014 1 26 00 -10.4 156.4 1000 25 2 Image --
2014 1 26 06 -11.4 155.3 1000 25 2 Image --
2014 1 26 18 -12.5 154.4 1000.5 25 2 Image --
2014 1 27 00 -13.1 154.5 1001 25 2 Image --
2014 1 27 06 -14.0 154.4 1000.5 20 2 Image --
2014 1 27 12 -14.1 154.0 1000 20 2 Image --
2014 1 27 18 -14.4 152.9 999 20 2 Image --
2014 1 28 00 -14.6 152.7 998 20 2 Image --
2014 1 28 06 -14.8 152.1 997 20 2 Image --
2014 1 28 12 -14.9 151.3 996 25 2 Image --
2014 1 28 18 -15.2 151.0 995 25 2 Image --
2014 1 29 00 -15.7 151.0 996 25 2 Image --
2014 1 29 06 -16.4 150.6 992 25 2 Image --
2014 1 29 12 -16.7 150.1 992 30 2 Image --
2014 1 29 18 -17.1 149.2 992 30 2 Image --
2014 1 30 00 -17.4 148.5 990 30 2 Image --
2014 1 30 06 -18.0 148.5 980 45 3 Image --
2014 1 30 12 -18.8 148.7 975 55 4 Image --
2014 1 30 18 -20.2 148.4 980 50 4 Image --
2014 1 31 00 -21.1 147.8 980 0 0 Image --
2014 1 31 06 -22.3 146.8 980 0 0 Image --
2014 1 31 12 -22.7 146.3 980 0 0 Image --
< Cyclone 201404 2014 Season Cyclone 201408 >

Help